C/2006 L1 (Garradd)
Epoch 2006 Nov. 1.0 TT = JDT 2454040.5  
T 2006 Oct. 18.00252 TT                                 Nakano
q   1.4620713            (2000.0)            P               Q
z  +0.0018264      Peri.  338.40983     -0.47813168     +0.65432885
 +/-0.0000023      Node   101.76018     +0.86766754     +0.24847954
e   0.9973297      Incl.  143.24234     +0.13617315     +0.71422102
From 678 observations 2006 June 4-2007 Mar. 12, mean residual 0".58.
   (1/a)org.= +0.001947, (1/a)fut.= +0.002534 (+/-0.000002), Q= 7.
Residuals in seconds of arc 
2006/                     061209 939  0.6+  0.4-    061230 232  0.0   0.1+  
060604 E12  0.1+  0.5+    061209 J67  0.6+  0.6-    061230 232  0.1-  0.2+  
060604 E12  0.6+  0.5+    061209 J67  0.4+  0.5-    061230 232  0.6+  0.3+  
060604 E12  0.2+  0.6-    061209 J67  0.6+  0.7-    061230 J76  0.2-  0.2-  
060604 E12  0.1-  0.0     061209 J67  0.6+  0.5-    061230 J76  0.2-  0.0   
060604 E12  0.7+  0.5+    061210 H06  0.3+  0.1-    061230 J76  0.2-  0.1+  
060604 E12  0.5-  0.2+    061210 H06  0.1+  0.7-    061230 J67  0.6+  0.3-  
060604 E12  0.2+  0.1-    061210 235  0.5+  0.2-    061230 J67  0.1-  0.2-  
060604 E12  0.1-  0.5+    061211 118  0.3+  0.1-    061230 J67  0.1+  0.3-  
060604 E12  0.1+  0.1-    061211 118  0.7+  0.1-    061231 213  0.2+  0.0   
060604 E12  1.6+  0.9+    061211 118  0.8+  0.2-    061231 213  0.0   0.1-  
060604 E12  0.1+  0.1+    061211 118  0.7+  0.0     061231 213  0.3+  0.4-  
060606 E12  0.4-  0.3+    061211 118  1.3+  0.2-    061231 B20  0.9+  0.1-  
060606 E12  0.0   0.7+    061211 703  0.9+  0.0     061231 B20  0.7+  0.0   
060606 E12  0.4-  0.7+    061211 703  0.5+  0.3+    061231 B20  0.3+  0.4+  
060606 E12  0.7-  0.1+    061211 703  0.1+  0.2+    2007/                   
060606 E12  0.6+  0.5-    061211 B20  0.8+  0.2-    070101 A10  0.4+  0.2+  
060606 E12  0.6-  0.0     061211 B20  0.6+  0.3-    070101 A10  0.2+  0.8+  
060606 I77  0.1-  0.3-    061211 B20  0.5+  0.1-    070101 A10  0.5+  0.5+  
060606 I77  0.1+  0.2-    061211 458  0.1+  0.2-    070102 619  1.2-  1.0-  
060606 I77  0.1+  0.3-    061211 458  0.1+  0.9-    070102 619  1.3-  0.6-  
060606 I77  0.6+  0.1-    061211 458  0.0   1.1-    070102 619  1.4-  0.8-  
060607 E12  0.0   0.1+    061213 349  0.2+  0.1+    070102 J97  0.6+  0.2-  
060607 423  1.7+  1.0-    061213 349  0.2+  0.3-    070102 J97  0.5-  0.1-  
060607 E12  0.3+  0.7+    061213 349  0.2-  0.1+    070102 J97  0.1-  0.2-  
060607 E12  0.3-  0.5+    061213 215  0.5+  0.0     070102 939  0.1+  0.0   
060607 E12  0.3+  0.1+    061213 215  0.5+  0.0     070102 939  0.1-  0.2+  
060607 423  0.5+  1.0-    061213 215  0.5+  0.0     070102 939  0.1-  0.2+  
060613 E12  0.6+  0.2-    061213 215  0.5+  0.1-    070102 A32  0.3-  0.0   
060613 E12  0.7+  0.2-    061213 215  0.5+  0.0     070102 A32  0.3-  0.0   
060613 E12  0.8+  0.1+    061213 215  0.5+  0.1+    070102 A32  0.5-  0.1-  
060613 E12  0.3+  0.5-    061213 A77  0.3+  0.7+    070102 A32  0.3-  0.1-  
060615 E12  0.5+  0.2+    061213 A77  1.4-  1.2+    070102 A32  0.4-  0.0   
060615 E12  0.1+  0.3+    061213 A77  0.8+  0.4+    070103 349  1.0-  0.2-  
060615 E12  0.7+  0.7-    061213 A77  1.1-  1.0+    070103 349  1.2-  0.0   
060615 E12  0.2-  0.0     061213 A77  1.2-  1.3+    070103 J70  1.2-  0.9-  
060617 423  0.2-  0.3-    061213 A77  1.1-  0.8+    070103 J70  1.6-  0.9-  
060617 423  0.6+  0.2-    061213 235  0.1-  0.4+    070103 J70  1.5-  0.3-  
060628 E12  0.1-  0.4+    061214 A77  0.8-  0.6+    070104 349  0.0   0.6-  
060628 E12  0.4-  0.1-    061214 A77  1.1-  1.3+    070104 349  0.0   0.7-  
060628 E12  0.3-  0.1+    061214 A77  1.6-  1.0+    070104 349  0.0   0.8-  
060727 415  0.2-  0.4-    061214 A77  0.3+  0.4-    070104 619  0.0   0.0   
060727 415  0.2-  0.3-    061214 A77  0.3-  0.2+    070104 619  0.1-  0.1+  
060727 415  0.3+  0.6+    061214 A77  0.3-  0.4+    070104 619  0.8-  0.2+  
061008 D88  0.5-  0.1-    061214 A77  0.3-  0.2+    070104 619  0.4-  0.5-  
061008 D88  1.1-  0.5-    061214 A77  1.0-  0.4-    070104 619  0.2-  0.2-  
061008 D88  1.1-  0.5-    061214 A77  0.5-  0.5+    070104 619  0.1-  0.2-  
061014 349  0.3-  0.2+    061214 A77  0.9+  0.1-    070104 619  0.2-  0.2-  
061014 349  0.5-  0.1+    061214 A77  1.4-  0.8+    070104 619  0.2-  0.4-  
061014 349  0.4-  0.0     061214 A77  1.3-  0.1-    070104 619  0.1+  0.1+  
061014 D70  0.7+  0.0     061214 235  0.3+  0.3+    070104 619  0.1-  0.2-  
061014 D70  0.2+  0.2+    061214 B20  0.3+  0.1+    070104 619  0.5-  0.2-  
061014 D70  0.4-  0.2-    061214 B20  0.0   0.1+    070105 213  0.2+  0.1-  
061015 349  0.6-  0.1-    061214 B20  0.4+  0.0     070105 213  0.2+  0.1-  
061015 349  0.6-  0.0     061215 J53  0.6+  0.1-    070105 213  0.0   0.1-  
061015 349  0.5-  0.2-    061215 J53  0.7+  0.0     070105 J70  0.2-  0.1-  
061015 361 (1.5-  2.0-)   061215 J53  0.5+  0.1-    070105 J70  0.1+  0.1+  
061015 372  0.9-  0.7-    061216 473  0.4+  0.1-    070105 J70  1.0+  0.4-  
061015 372  0.7-  0.7-    061216 473  0.4+  0.2-    070106 J97  0.1+  0.2-  
061015 361 (1.9-  2.2-)   061216 170  0.1+  0.1+    070106 J97  0.1-  0.4-  
061016 H06  0.1-  0.4-    061216 170  0.6+  0.0     070106 J97  0.2-  0.2-  
061016 H06  0.4-  0.3-    061216 939  0.3+  0.2-    070106 939  0.0   0.3+  
061020 372  0.1-  0.6-    061216 939  0.4+  0.1-    070106 939  0.1+  0.4+  
061020 349  0.3-  0.1+    061216 939  0.4+  0.0     070106 939  0.3+  0.3+  
061020 349  0.3-  0.2+    061217 D88  0.7+  0.1+    070107 D88  0.1-  0.1-  
061020 349  0.5-  0.3+    061217 D88  0.4+  0.6-    070107 D88  0.1+  0.3-  
061020 372  0.2-  0.6+    061217 D88  0.1+  0.5-    070107 D88  0.2+  0.1-  
061021 361  0.9+  0.3-    061217 J70  0.9-  0.4+    070107 B20  0.1+  0.1-  
061021 361  0.8+  0.6-    061217 J70 (2.9-  0.5+)   070107 B20  0.1+  0.1-  
061021 361  0.2-  1.5-    061217 J70 (2.8-  0.6+)   070107 B20  0.0   0.1-  
061021 361  0.6+  0.4-    061217 J70 (3.1-  0.6+)   070108 704 (6.9+  0.2+) 
061021 361  0.0   1.0-    061217 J70 (3.5-  0.0 )   070108 704  1.9+  1.0+  
061021 361 (2.5-  0.2+)   061217 J70 (3.1-  0.6+)   070108 704  1.6+  0.7+  
061021 361  0.3-  0.1+    061217 J70 (2.8-  0.5+)   070108 704  1.5+  0.8+  
061021 361  0.6-  0.0     061218 A77  0.5-  0.7+    070108 704  0.2+  1.5-  
061021 361  0.8-  0.4-    061218 A77  0.4-  0.7+    070108 355  0.2+  0.0   
061021 361 (2.0-  0.2-)   061218 A77  0.7-  0.4+    070108 355  0.0   0.3-  
061022 J63  0.4-  0.6-    061218 A77  1.6+  0.8+    070108 355  0.1-  0.1-  
061022 J63  1.0-  1.6+    061218 A77  0.5-  0.5-    070108 355  0.1+  0.2-  
061022 J63  1.1-  0.8+    061218 A77  1.6+  0.6-    070108 J97  0.1+  0.0   
061023 H06  0.0   0.1-    061218 J64  0.4+  0.0     070108 J97  0.1+  0.7+  
061023 H06  0.2-  0.4-    061218 J64  0.3+  0.6+    070108 J97  0.1-  0.1-  
061023 300  1.0-  1.2+    061218 J64  0.5+  0.0     070109 372  0.4-  0.2+  
061023 300  1.6-  1.3+    061219 726  0.3-  0.2+    070109 619  0.8-  0.8-  
061023 372  0.2-  0.1-    061219 726  0.5-  0.4+    070109 619  0.7-  0.8-  
061023 300  1.8-  1.5+    061219 726  0.4-  0.5+    070109 619  0.6-  0.9-  
061023 372  0.9-  0.3-    061219 726  0.4-  0.3-    070109 A06  0.2-  0.1+  
061023 300  1.6-  1.1+    061219 726  0.0   0.5+    070109 A06  0.1-  0.1-  
061023 300  1.6-  1.3+    061219 726  0.4-  0.6+    070109 A06  0.1+  0.0   
061027 204  0.3-  0.0     061219 619 (3.1-  0.2+)   070111 J53  0.3+  0.9-  
061027 204  0.3-  0.0     061219 619 (2.4-  0.2+)   070111 J53  0.7+  0.3-  
061027 204  0.2-  0.0     061219 619 (4.0-  0.1+)   070111 J53  0.8+  0.2-  
061027 704 (0.2-  4.6-)   061219 B20  0.2+  0.1-    070112 939  0.3+  0.3+  
061027 704  0.0   0.2-    061219 B20  0.2+  0.1+    070112 939  0.2+  0.3+  
061027 704  0.9-  0.4-    061219 B20  0.1+  0.0     070112 939  0.2+  0.2+  
061027 704  0.3-  0.2-    061220 A77  1.6+  0.5-    070112 213  0.0   0.0   
061027 704 (5.8-  9.4+)   061220 A32  0.2+  0.3+    070112 213  0.0   0.1+  
061028 H06  0.1+  0.1-    061220 A77  1.8+  0.6+    070112 213  0.0   0.1+  
061028 H06  0.2-  0.2-    061220 A77  1.1+  0.7+    070112 204  0.2+  0.2-  
061031 215  0.3-  0.2-    061220 A77  1.1-  0.1+    070112 J76  0.0   0.2+  
061031 215  0.1-  0.3-    061220 A77  1.3+  1.4-    070112 J76  0.0   0.1+  
061031 215  0.4-  0.1-    061220 A77  1.2-  1.1-    070113 J76  0.1-  0.1+  
061103 H51  1.8-  0.4+    061220 A32  0.0   0.1+    070113 A06  0.3+  0.0   
061103 H51  1.8-  0.4+    061220 A32  0.2-  0.2+    070113 A06  0.1+  0.3-  
061103 H51  1.2-  0.1+    061220 138  0.3+  0.0     070113 204  0.4+  0.2-  
061103 H51  1.3-  0.1+    061220 A32  0.2-  0.1+    070113 215  0.0   0.1-  
061103 H51  1.3-  0.1+    061220 138  0.5+  0.0     070113 215  0.0   0.3-  
061104 349  0.6-  0.1-    061220 A32  0.1+  0.1+    070113 215  0.1-  0.3-  
061104 349  0.4-  0.3-    061220 138  0.1+  0.0     070113 215  0.3-  0.2-  
061107 349  0.1-  0.2-    061221 D35  0.0   1.2+    070113 232  0.1+  0.3-  
061107 349  0.1-  0.2-    061221 D35  0.3-  0.0     070113 232  0.0   0.4-  
061107 349  0.0   0.1-    061221 D35  0.4+  0.1-    070113 232  0.0   0.1-  
061108 361  1.3+  0.2-    061221 235  0.2+  0.3+    070114 349  0.2+  0.1-  
061108 361  0.7-  0.3+    061221 J53  0.1-  0.2+    070114 349  0.2+  0.0   
061108 361  0.8+  1.1-    061221 J53  0.2+  0.3+    070114 349  0.2+  0.2-  
061108 361  0.1+  0.8-    061221 J53  0.3+  0.4+    070114 A41  0.6+  0.8+  
061108 361  1.4-  0.4+    061221 J64  0.6+  0.3+    070114 A41  0.5+  0.2+  
061108 361  0.3+  0.3+    061221 J64  0.1+  0.2+    070115 561  0.3+  0.2+  
061108 361  0.6+  0.2+    061221 J64  0.1-  0.5+    070115 561  0.1+  0.0   
061108 361  0.3+  0.6-    061222 130  0.7+  0.3+    070115 561  1.4+  1.3+  
061108 361  0.3-  0.6+    061222 130  0.6+  0.2+    070115 235  0.1-  0.1-  
061115 703  0.7-  0.2-    061222 130  0.5+  0.2+    070116 J70  0.2-  0.4+  
061115 703  1.6-  0.3+    061222 130  0.6+  0.3+    070116 J70  0.6+  0.4-  
061115 703  0.2-  0.3+    061222 372  0.6+  0.0     070116 J70  0.2-  0.2-  
061115 703  0.0   0.1-    061222 372  0.1-  0.9+    070116 J70  0.8+  0.7-  
061116 A79  0.2+  0.5+    061222 J55  0.1-  0.3-    070116 J70  0.4-  0.5+  
061116 A79  0.6+  0.8+    061223 J55  0.1+  0.0     070116 J70  0.0   0.2-  
061116 A79  1.5+  0.7-    061223 J55  0.1-  0.1-    070117 J67  0.2+  0.4-  
061116 A79  0.7+  0.5+    061223 D88  0.2+  0.0     070117 J67  0.0   0.4-  
061116 361  0.6+  0.1+    061223 D88  0.3+  0.3-    070117 J67  0.2+  0.1-  
061116 361  1.4-  0.5+    061223 D88  0.4+  0.2+    070118 J70  0.1-  0.1-  
061116 361  0.9+  0.1-    061223 A50  0.3+  0.5-    070118 J70  0.0   0.0   
061116 361  0.4+  0.1-    061223 A50  0.1+  0.4-    070118 J70  0.0   0.4+  
061116 361  0.6+  0.4+    061223 A50  0.2+  0.2+    070118 J76  0.1-  0.0   
061116 361  1.1-  0.4-    061223 A50  0.0   0.1+    070118 J76  0.0   0.1-  
061116 361  0.4-  0.2+    061223 235  0.1-  0.2+    070118 J76  0.1-  0.2-  
061116 361  0.2-  0.4-    061223 945  0.2-  0.1+    070118 J70  0.3-  0.3-  
061116 361  0.0   1.0-    061223 945  0.3+  0.1-    070119 J97  0.7-  0.4-  
061116 361  0.5+  0.1-    061223 945  0.6-  0.3-    070119 J97  0.3-  0.3-  
061116 361  0.2+  0.8-    061223 945  0.6+  0.6+    070119 J97  0.4+  0.1+  
061116 361 (2.2-  0.2+)   061223 945  0.4-  0.4+    070119 A10  0.3-  0.4+  
061117 361  0.6+  0.3+    061224 726  0.5+  0.0     070119 J76  0.1+  0.1+  
061117 361  0.0   0.5-    061224 726  0.6-  0.3-    070119 J76  0.2+  0.2+  
061117 361  0.7+  0.7-    061224 726  0.0   0.0     070119 J76  0.0   0.1+  
061117 361  0.4+  0.4+    061224 726  0.0   0.3-    070120 232  0.4-  0.2-  
061117 361  1.2+  0.5-    061224 726  0.1+  0.0     070120 232  0.1+  0.2-  
061117 361  0.4+  1.0-    061224 213  0.2+  0.6+    070120 232  0.0   0.5-  
061117 361  0.7+  0.5-    061224 213  0.3-  0.0     070120 J76  0.0   0.0   
061117 361  0.9+  0.3+    061224 213  0.1+  0.1+    070120 J76  0.0   0.0   
061118 J63  0.2-  1.2-    061225 B20  0.6+  0.3-    070120 J76  0.1-  0.1-  
061118 J63  0.6-  0.0     061225 B20  0.1-  0.0     070123 J70 (0.6+  2.0-) 
061118 J63  0.4+  1.4-    061225 B20  0.4-  0.0     070123 J70  0.2+  1.0-  
061118 232  0.7+  0.5-    061225 B20  0.2+  0.1-    070123 J70  1.3+  0.3-  
061118 232  0.2+  0.1-    061225 B20  0.1-  0.1-    070124 704 (1.6+  2.0+) 
061118 232  0.2+  0.3-    061225 213  0.1+  0.2-    070124 704  0.6+  0.2+  
061119 J63 (4.1-  0.6+)   061225 J79  0.6+  0.2-    070124 704  0.8+  0.2+  
061119 J63 (1.4-  3.1-)   061225 J79  0.5+  0.1-    070124 704  0.5+  0.1+  
061119 J63  1.7-  0.9-    061225 J79  0.6+  0.1+    070124 704 (0.1-  2.1-) 
061119 939  0.7+  0.1+    061225 213  0.0   0.1-    070124 J76  0.0   0.1+  
061119 939  0.4+  0.2+    061225 213  0.0   0.1-    070124 J76  0.1-  0.1+  
061119 939  0.1+  0.5+    061225 232  0.0   0.0     070124 J76  0.0   0.0   
061121 349  0.4+  0.3-    061225 232  0.1-  0.1-    070125 712  0.1+  0.0   
061121 349  0.5+  0.3-    061225 232  0.0   0.2-    070125 712  0.0   0.4-  
061121 349  0.4+  0.1-    061225 945  0.4+  0.3-    070125 712  0.2+  0.7-  
061123 945  0.5-  0.9+    061225 945  0.2+  0.3-    070125 712  1.1-  0.6+  
061123 945  1.1+  1.2+    061225 945  0.5+  0.4-    070125 712 (1.7-  2.8+) 
061123 945  0.2-  0.8+    061225 945  0.4+  0.2-    070125 712 (0.2+  2.9+) 
061123 945  0.7-  1.3+    061225 945  0.0   0.2-    070127 349  0.5+  0.4-  
061123 945  0.2+  0.6+    061226 B20  0.1+  0.4-    070127 349  0.1+  0.2-  
061123 235  0.3+  0.4-    061226 B20  0.2+  0.0     070127 232  0.7-  0.0   
061123 J70  0.2-  0.6+    061226 B20  0.5+  0.0     070127 232  0.0   0.7+  
061123 J70  1.1-  1.6+    061226 939  0.0   0.1+    070127 232  0.3+  0.6+  
061124 J70  0.6-  0.7+    061226 939  0.1+  0.1+    070127 204  0.1+  0.1+  
061124 J70  0.4-  1.2+    061226 939  0.2+  0.1+    070127 939  0.4-  0.1+  
061124 J70  0.8-  0.4+    061226 J97  0.2+  0.1+    070127 939  0.1+  0.1-  
061124 J70  0.0   0.5+    061226 473  0.1+  0.0     070127 939  0.4+  0.0   
061126 232  0.5-  0.7-    061226 J97  0.1-  0.2-    070127 204  0.2-  0.2-  
061126 232  0.3+  0.5-    061226 473  0.0   0.0     070130 712 (1.0+  5.3-) 
061126 232  1.1-  0.8-    061226 473  0.0   0.1+    070130 712  0.8+  0.6+  
061128 J63  0.3+  1.9-    061226 235  0.1+  0.0     070130 712  0.8-  0.5+  
061128 J63  0.4-  1.6-    061226 J97  0.1-  0.0     070130 712  1.4+  0.2-  
061128 J63  0.0   0.5-    061226 J79  0.1+  0.4-    070130 712  0.3+  0.1+  
061129 704 (5.7-  2.9+)   061226 J79  0.1-  0.4-    070130 D88  0.2-  0.7+  
061129 704 (7.1-  0.4+)   061226 J79  0.0   0.3-    070130 D88  0.5+  0.7+  
061129 704 (6.1-  1.3+)   061227 726  0.2-  0.5+    070130 D88  0.0   0.1-  
061130 945  0.4-  1.2+    061227 726  0.1+  0.1+    070131 J70  0.6-  1.9+  
061130 945  0.6-  1.2+    061227 726  0.1+  0.3+    070131 J70  1.3+  0.4+  
061130 945  0.8-  1.0+    061227 726  0.2-  0.3+    070131 J70  1.6+  0.2+  
061130 945  0.3-  1.1+    061227 D88  0.1+  0.1-    070131 J70 (0.6-  3.2-) 
061130 945  0.3-  1.2+    061227 D88  0.0   0.2-    070201 J97  0.7+  0.2-  
061130 J52  0.9+  0.3-    061227 D88  0.0   0.2+    070201 J97  0.0   0.2-  
061130 J52  0.9+  0.5-    061227 201  0.2+  0.1-    070201 J97  0.5-  1.1-  
061130 J52  1.0+  0.1-    061227 201  0.1+  0.2+    070203 D88  0.4-  0.5-  
061130 J97  0.7+  0.4-    061227 201  0.2+  0.3-    070203 D88  0.3+  0.4+  
061130 J97  1.0+  1.0-    061227 A10  0.3+  0.3-    070203 D88  0.4-  0.1-  
061130 J97  0.5+  0.2-    061227 A10  0.1+  0.1-    070203 232  0.1-  0.8-  
061201 355  0.7+  0.1-    061227 A10  0.3-  0.2-    070203 232  0.2+  0.2+  
061201 355  0.9+  0.0     061227 A77  0.3-  0.0     070203 232  0.1-  0.5+  
061201 355  0.8+  0.0     061227 A77  1.2-  1.0-    070204 D88  0.1-  0.1+  
061201 355  0.8+  0.2-    061227 A77  0.5-  0.4+    070204 D88  0.5+  0.2+  
061201 355  0.8+  0.3-    061227 A77  0.5-  0.1+    070204 D88  0.6+  0.1+  
061203 J67  0.4+  0.5-    061227 A77  0.6+  0.0     070205 J70  1.4-  0.5+  
061203 J67  0.6+  0.5-    061227 619  0.8-  0.4-    070205 J70  1.5-  1.5+  
061203 J67  0.4+  0.5-    061227 619  0.6-  0.1-    070205 J70  1.8-  0.9+  
061204 349  0.7+  0.3-    061227 619  0.6+  0.0     070206 619  0.8-  0.3-  
061204 349  0.8+  0.2-    061227 A06  0.0   0.0     070206 619  0.9+  0.2-  
061204 349  0.5+  0.1+    061227 A06  0.1+  0.1+    070206 619  0.7+  0.3+  
061204 J97  1.6+  0.4-    061227 A06  0.0   0.1-    070206 970  0.5+  0.0   
061204 J97  1.0+  0.4-    061228 349  0.1+  0.1-    070206 970  0.1+  0.4+  
061204 J97  0.6+  0.3+    061228 349  0.0   0.4-    070210 232  0.1+  0.3+  
061207 B19  0.4+  0.5-    061228 619  1.7-  0.8-    070210 232  0.3+  0.2-  
061207 B19  1.3+  1.0-    061228 619  1.9-  0.8-    070210 232  0.3+  0.4+  
061208 J97  0.4+  0.4-    061228 619  1.7-  0.8-    070211 349  0.1+  0.9+  
061208 J97  0.1-  0.9-    061228 J79  0.9+  0.4+    070211 349  0.1+  0.9+  
061208 J97  0.3-  0.2-    061228 J79  0.3+  0.1+    070212 D88  0.5-  0.7+  
061208 J70  0.4-  0.3+    061228 J79  0.1+  0.1+    070212 D88  0.4-  0.1-  
061208 J70 (2.0-  1.4+)   061229 D88  0.2+  0.0     070212 D88  0.1+  0.5+  
061208 J70 (2.5-  1.2+)   061229 D88  0.1+  0.4+    070212 349  0.1-  0.2-  
061208 J70 (2.4-  1.5+)   061229 D88  0.0   0.3+    070212 349  0.1-  0.0   
061208 J70 (2.6-  1.6+)   061229 349  0.1+  0.3-    070213 619  0.4+  0.3+  
061208 J70  1.6-  1.3+    061229 349  0.1+  0.2-    070213 619  1.6-  0.3-  
061208 J70 (2.3-  2.0+)   061229 A06  0.0   0.3-    070213 619  0.1-  0.2-  
061208 J70 (2.2-  1.7+)   061229 A06  0.1-  0.2-    070213 619  0.2-  0.1-  
061208 J70 (2.2-  1.1+)   061229 A06  0.0   0.1-    070213 619  0.0   0.5-  
061208 J70 (2.8-  1.3+)   061229 939  0.0   0.0     070214 J70  1.2-  1.1+  
061208 J70 (2.0-  0.9+)   061229 939  0.1-  0.1+    070214 J70  1.3-  1.0+  
061208 J70  1.7-  1.4+    061229 939  0.4-  0.1+    070214 J70  0.5-  1.7+  
061208 J70  1.6-  1.2+    061229 473  0.1+  0.1+    070215 215  0.3-  0.2-  
061208 J70  1.9-  1.0+    061229 473  0.0   0.1+    070215 215  0.1-  0.3-  
061208 J70  1.7-  0.8+    061229 473  0.1+  0.1+    070215 215  0.1+  0.4-  
061208 J70  1.7-  1.2+    061230 619  0.6-  0.4-    070217 J70  1.5+  1.6-  
061208 J70  1.6-  1.4+    061230 619  0.4-  0.1-    070217 J70 (2.4+  1.4-) 
061208 J70  1.7-  1.0+    061230 619  0.4-  0.3-    070217 J70  1.3+  1.4-  
061208 J70  1.5-  1.4+    061230 619  0.2-  0.0     070303 232  0.3+  0.6+  
061208 J70  1.7-  1.1+    061230 619  0.5-  0.2-    070303 232  0.5+  0.2+  
061208 J67  0.8+  0.6-    061230 619  0.2-  0.1-    070303 232  0.8+  0.1-  
061208 J67  0.2+  0.7-    061230 619  0.4-  0.2-    070312 215  0.3-  0.8+  
061208 J67  0.3+  0.6-    061230 619  0.3-  0.4-    070312 215  0.9-  0.6-  
061209 939  0.4+  0.2-    061230 619  0.2-  0.2-    070312 215  0.1-  0.6-  
061209 939  0.5+  0.3-    061230 619  0.4-  0.4-                            

